C/2023 B2 ( ATLAS )

Japanese version
Home page
Updated on August 27, 2023

---------------------------------------------------------------------

* Profile

Discovery Date January 21, 2023
Magnitude 18.8 mag
Discoverer Asteroid Terrestrial-Impact Last Alert System (ATLAS) search program

* Pictures

* Orbital Elements

Epoch 2023 Feb. 25.0 TT = JDT 2460000.5
T 2023 Mar. 10.49695 TT                                 Rudenko
q   1.7431316            (2000.0)            P               Q
z  +0.0016723      Peri.  317.40005     -0.89554599     -0.18836906
 +/-0.0000005      Node   218.12073     +0.12891899     -0.97695622
e   0.9970850      Incl.   40.77069     -0.42588412     +0.10036755
>From 485 observations 2022 Nov. 16-2023 July 1, mean residual 0".5.

* Finding Charts

* Magnitudes Graph

        m1 = 9.0 + 5 log d + 25.0 log r(t - 50)

---------------------------------------------------------------------

The orbital elements are published on M.P.E.C. 2023-N16.
The charts are made with StellaNavigator Ver.10 (AstroArts).
The magnitudes graphs are made with Comet for Windows.

---------------------------------------------------------------------

Copyright(C) Seiichi Yoshida (comet@aerith.net). All rights reserved.